SL-16 DEB

Satellite information

Favourite Embed

Satellite Type and Status

DEBRISIN ORBIT

Key statistics

Satellite SL-16 DEB at a glance.

Uptime

10842

Days in orbit

Revolutions

≈ 13.7

Per day

Orbit

LEO

Low Earth Orbit

Inclination

71.0

Latest

Satellite identification and parameters

Extended collection of information and parameters for SL-16 DEB.

Object identification

Identified? True

Debris? True

Object name: SL-16 DEB

International designator: 1995-058D

Object number (NORAD): 23707

Object ID (CCSDS): 23707

Country: COMMONWEALTH OF INDEPENDENT STATES (CIS)

Current information (Y/N): Y

RCS size: SMALL

Orbital parameters

Period: 104.923 minutes

Inclination: 70.9952 deg

SMA: 7368.99 km

Apoapsis: 1143.293 km

Periapsis: 838.416 km

RAAN: 90.8266 deg

Eccentricy: 0.0206865

Argument of periapsis: 249.2909 deg

Mean anomaly: 277.755 deg

Mean motion: 13.72432029 rev/day

Mean motion (dot): 0.00000036 rev/day2

B* drag term: 0.00007481 1/REarth

Two-line elements (TLE)

Creation date: July 6, 2025, 6:05 p.m.

Reference frame: TEME

Reference center: EARTH

Epoch: July 6, 2025, 4:59 a.m. UTC

TLE line 0: 0 SL-16 DEB

TLE line 1: 1 23707U 95058D 25187.20795763 .00000036 00000-0 74810-4 0 9991

TLE line 2: 2 23707 70.9952 90.8266 0206865 249.2909 277.7550 13.72432029485896

Live tracking on map

Real-time ground track for satellite SL-16 DEB.

In-orbit conjunctions

A list of the most updated potential collisions computed for object SL-16 DEB.

Target Orbit TCA Probability of collision Miss distance Type
SL-16 DEB LEO 2024-11-08 08:27:10 0.0002303711 479.0 (m) DEBRIS

Associated space launch

Second generation ELING satellite

SL-16 DEB was lifted into orbit during the mission ‘Zenit-2 | Tselina-2 17’, on board a Zenit-2 space rocket.

The launch took place on Oct. 31, 1995, 8:19 p.m. from 45/1.

For more information about the launch, click the button.

Launch to space Zenit-2 | Tselina-2 17
Zenit-2 | Tselina-2 17

Agency: N/A

Status: Launch Successful

Launch date: Oct. 31, 1995, 8:19 p.m. UTC

Rocket: Zenit-2

Launch pad: 45/1

Location: Baikonur Cosmodrome, Republic of Kazakhstan

...

Latest news about this satellite

There are no fresh news available about this satellite. Check back as we update our databases every day.


Newsletter sign-up

Weekly statistics, charts and insights to help you stay on top of the space industry.